Regional Weather Roundup
Issued by NWS

Home | Current Version | Previous Version | Text Only | Print | Product List | Glossary On
Versions: 1 2 3 4 5 6 7 8 9 10 11 12 13 14 15 16 17 18 19 20 21 22 23 24 25 26 27 28 29 30 31 32 33 34 35 36 37 38 39 40 41 42 43 44 45 46 47 48 49 50
000
ASUS43 KLMK 031202
RWRKY
KENTUCKY REGIONAL WEATHER ROUNDUP
NATIONAL WEATHER SERVICE LOUISVILLE KY
700 AM EST TUE MAR 03 2015

NOTE "FAIR" INDICATES FEW OR NO CLOUDS BELOW 12,000 FEET
WITH NO SIGNIFICANT WEATHER AND/OR OBSTRUCTIONS TO VISIBILITY.

KYZ001>023-026-027-061>063-070>075-031300-
WESTERN AND SOUTH CENTRAL KENTUCKY

CITY           SKY/WX    TMP DP  RH WIND       PRES   REMARKS
PADUCAH        CLOUDY    38  29  70 S3        30.06F
HENDERSON      CLOUDY    36  27  69 SE8       30.05F WCI  29
OWENSBORO      CLOUDY    36  28  73 SE9       30.06F WCI  29
HOPKINSVILLE   CLOUDY    42  33  70 SE5       30.09S
BOWLING GREEN  CLOUDY    40  29  64 CALM      30.11F
GLASGOW        NOT AVBL
$$

KYZ024-025-028>034-038-045-046-053-031300-
NORTH CENTRAL KENTUCKY

CITY           SKY/WX    TMP DP  RH WIND       PRES   REMARKS
LOUISVILLE/SDF CLOUDY    34  23  64 SE9       30.12F WCI  27
LOUISVILLE/LOU CLOUDY    34  22  61 S6        30.12F WCI  29
FORT KNOX      CLOUDY    33  23  67 E6        30.07F WCI  27
$$

KYZ035>037-039>044-047>052-055>060-089>105-031300-
NORTHEAST KENTUCKY

CITY           SKY/WX    TMP DP  RH WIND       PRES   REMARKS
LEXINGTON      CLOUDY    32  22  66 SE9       30.11F WCI  24
COVINGTON      CLOUDY    29  19  66 S9        30.09F WCI  20
FRANKFORT      CLOUDY    32  22  66 E5        30.12S WCI  27
$$

KYZ054-064>069-076>088-106>120-031300-
SOUTHEAST KENTUCKY

CITY           SKY/WX    TMP DP  RH WIND       PRES   REMARKS
JACKSON        CLOUDY    32  20  61 CALM      30.13F
LONDON         CLOUDY    37  25  61 CALM      30.14F
SOMERSET       NOT AVBL
MIDDLESBORO    NOT AVBL
MONTICELLO     CLOUDY    39  32  76 CALM      30.16F
$$




USA.gov is the U.S. government's official web portal to all federal, state and local government web resources and services.